Weather History for Beaumont, TX

Change the Weather History Date:

Tuesday, February 26, 2013

  Actual Average Record
Temperature  
Mean Temperature 53 °F 58 °F  
Max Temperature 64 °F 68 °F 85 °F (1986)
Min Temperature 42 °F 49 °F 27 °F (1960)
Degree Days  
Heating Degree Days 12 8  
Month to date heating degree days 164 256  
Since 1 July heating degree days 948 1199  
Cooling Degree Days 0 1  
Month to date cooling degree days 7 14  
Year to date cooling degree days 30 25  
Growing Degree Days 3 (Base 50)    
Moisture  
Dew Point 36 °F    
Average Humidity 54    
Maximum Humidity 74    
Minimum Humidity 34    
Precipitation  
Precipitation 0.00 in 0.11 in 2.85 in (1987)
Month to date precipitation 3.30 3.34  
Year to date precipitation 11.52 8.60  
Snow  
Snow 0.00 in 0.00 in 0.00 in ()
Month to date snowfall 0.0 0.0  
Since 1 July snowfall 0.0 T  
Snow Depth 0.00 in    
Sea Level Pressure  
Sea Level Pressure 29.84 in    
Wind  
Wind Speed 10 mph (WNW)    
Max Wind Speed 21 mph    
Max Gust Speed 29 mph    
Visibility 10 miles    
Events      
T = Trace of Precipitation, MM = Missing Value Source: NWS Daily Summary

Daily Weather History Graph

Daily Weather History Graph

Search for Another Location

Airport:

Trip Planner

Search our weather history database for the weather conditions in past years. The results will help you decide how hot, cold, wet, or windy it might be!

Date:

Astronomy

Feb. 26, 2013 Rise Set
Actual Time 6:44 AM CST 6:13 PM CST
Civil Twilight 6:20 AM CST 6:37 PM CST
Nautical Twilight 5:53 AM CST 7:05 PM CST
Astronomical Twilight 5:25 AM CST 7:32 PM CST
Moon 7:20 PM CST (2/26) 6:55 AM CST (2/26)
Length of Visible Light 12h 16m
Length of Day
11h 28m
Full, 99% of the Moon is Illuminated
Feb 26
Full
Mar 4
Last Quarter
Mar 11
New
Mar 19
First Quarter
Mar 27
Full

Hourly Weather History & Observations

Time (CST) Temp. Windchill Dew Point Humidity Pressure Visibility Wind Dir Wind Speed Gust Speed Precip Events Conditions
12:53 AM 46.9 °F - 32.0 °F 56% 29.73 in 10.0 mi West 15.0 mph 24.2 mph N/A   Clear
1:53 AM 46.0 °F 39.3 °F 33.1 °F 61% 29.73 in 10.0 mi West 16.1 mph 26.5 mph N/A   Clear
2:53 AM 46.0 °F 40.6 °F 32.0 °F 58% 29.75 in 10.0 mi West 11.5 mph 21.9 mph N/A   Clear
3:53 AM 45.0 °F 39.3 °F 33.1 °F 63% 29.75 in 10.0 mi West 11.5 mph 20.7 mph N/A   Clear
4:53 AM 44.1 °F 38.1 °F 32.0 °F 63% 29.75 in 10.0 mi West 11.5 mph - N/A   Clear
5:53 AM 43.0 °F 37.2 °F 33.1 °F 68% 29.78 in 10.0 mi West 10.4 mph - N/A   Clear
6:53 AM 43.0 °F 38.2 °F 34.0 °F 71% 29.80 in 10.0 mi WNW 8.1 mph - N/A   Clear
7:53 AM 46.0 °F 40.2 °F 34.0 °F 63% 29.83 in 10.0 mi WNW 12.7 mph 19.6 mph N/A   Clear
8:53 AM 48.0 °F - 34.0 °F 58% 29.84 in 10.0 mi WNW 17.3 mph 24.2 mph N/A   Clear
9:53 AM 51.1 °F - 34.0 °F 52% 29.88 in 10.0 mi West 16.1 mph 24.2 mph N/A   Clear
10:53 AM 54.0 °F - 35.1 °F 49% 29.87 in 10.0 mi West 15.0 mph - N/A   Clear
11:53 AM 57.9 °F - 35.1 °F 42% 29.87 in 10.0 mi West 12.7 mph 21.9 mph N/A   Clear
12:53 PM 60.1 °F - 36.0 °F 41% 29.85 in 10.0 mi WNW 13.8 mph 20.7 mph N/A   Clear
1:53 PM 62.1 °F - 35.1 °F 37% 29.83 in 10.0 mi WNW 13.8 mph 21.9 mph N/A   Clear
2:53 PM 63.0 °F - 35.1 °F 35% 29.82 in 10.0 mi WNW 10.4 mph - N/A   Clear
3:53 PM 64.0 °F - 35.1 °F 34% 29.83 in 10.0 mi WNW 11.5 mph - N/A   Clear
4:53 PM 62.1 °F - 35.1 °F 37% 29.84 in 10.0 mi NW 10.4 mph - N/A   Clear
5:53 PM 57.0 °F - 36.0 °F 45% 29.86 in 10.0 mi NNW 8.1 mph - N/A   Clear
6:53 PM 55.9 °F - 35.1 °F 45% 29.89 in 10.0 mi Calm Calm - N/A   Clear
7:53 PM 52.0 °F - 41.0 °F 66% 29.89 in 10.0 mi Calm Calm - N/A   Clear
8:53 PM 51.1 °F - 42.1 °F 71% 29.92 in 10.0 mi WSW 3.5 mph - N/A   Clear
9:53 PM 50.0 °F - 43.0 °F 77% 29.94 in 10.0 mi Calm Calm - N/A   Clear
10:53 PM 50.0 °F - 42.1 °F 74% 29.95 in 10.0 mi Calm Calm - N/A   Clear
11:53 PM 46.0 °F - 43.0 °F 89% 29.94 in 10.0 mi Calm Calm - N/A   Clear